Coventry, United Kingdom

2:05 PM BST on September 28, 2016 (GMT +0100)
Coventry

Weather History for EGBE - April, 2014

Change the Weather History Date:

Saturday, April 26, 2014

  Actual Average Record
Temperature  
Mean Temperature 53 °F -  
Max Temperature 60 °F 57 °F 68 °F (2004)
Min Temperature 46 °F 42 °F 35 °F (2016)
Degree Days  
Heating Degree Days 12    
Growing Degree Days 3 (Base 50)    
Moisture  
Dew Point 44 °F    
Average Humidity 67    
Maximum Humidity 93    
Minimum Humidity 48    
Precipitation  
Precipitation 0.00 in - - ()
Sea Level Pressure  
Sea Level Pressure 29.59 in    
Wind  
Wind Speed 12 mph ()    
Max Wind Speed 21 mph    
Max Gust Speed 34 mph    
Visibility 5.5 miles    
Events Fog , Rain    
Averages and records for this station are not official NWS values.
T = Trace of Precipitation, MM = Missing Value Source: Averaged Metar Reports

Daily Weather History Graph

Daily Weather History Graph

Search for Another Location

Airport or City:

Trip Planner

Search our weather history database for the weather conditions in past years. The results will help you decide how hot, cold, wet, or windy it might be!

Date:

Astronomy

Apr. 26, 2014 Rise Set
Actual Time 5:45 AM BST 8:23 PM BST
Civil Twilight 5:07 AM BST 9:01 PM BST
Nautical Twilight 4:18 AM BST 9:50 PM BST
Astronomical Twilight 3:19 AM BST 10:51 PM BST
Moon 4:26 AM BST (4/26) 5:14 PM BST (4/26)
Length of Visible Light 15h 54m
Length of Day
14h 37m
Waning Crescent, 9% of the Moon is Illuminated
Apr 26
Waning Crescent
Apr 29
New
May 7
First Quarter
May 14
Full
May 21
Last Quarter

Hourly Weather History & Observations

Time (BST) Temp. Windchill Dew Point Humidity Pressure Visibility Wind Dir Wind Speed Gust Speed Precip Events Conditions
12:20 AM 46.4 °F 43.5 °F 42.8 °F 87% 29.71 in 0.3 mi SSE 5.8 mph - N/A Fog Fog
12:50 AM 46.4 °F 42.4 °F 44.6 °F 93% 29.71 in 1.2 mi SSE 8.1 mph - N/A   Mostly Cloudy
1:20 AM 46.4 °F 42.4 °F 44.6 °F 93% 29.71 in 1.9 mi SSE 8.1 mph - N/A   Mostly Cloudy
8:50 AM 51.8 °F - 46.4 °F 82% 29.59 in 6.2 mi SSE 13.8 mph - N/A   Scattered Clouds
9:50 AM 53.6 °F - 44.6 °F 72% 29.59 in 6.2 mi South 15.0 mph - N/A   Scattered Clouds
10:20 AM 53.6 °F - 44.6 °F 72% 29.59 in 6.2 mi South 15.0 mph - N/A   Scattered Clouds
10:50 AM 55.4 °F - 46.4 °F 72% 29.59 in 6.2 mi South 12.7 mph - N/A   Scattered Clouds
11:20 AM 55.4 °F - 44.6 °F 67% 29.59 in 6.2 mi SSE 15.0 mph 31.1 mph N/A   Scattered Clouds
11:50 AM 57.2 °F - 44.6 °F 63% 29.59 in 6.2 mi SSE 17.3 mph - N/A   Scattered Clouds
12:20 PM 57.2 °F - 42.8 °F 59% 29.59 in 6.2 mi South 18.4 mph 29.9 mph N/A   Scattered Clouds
12:50 PM 57.2 °F - 44.6 °F 63% 29.59 in 6.2 mi South 16.1 mph - N/A   Scattered Clouds
1:20 PM 57.2 °F - 44.6 °F 63% 29.59 in 6.2 mi SSW 13.8 mph - N/A Rain Light Rain
1:50 PM 57.2 °F - 44.6 °F 63% 29.59 in 6.2 mi South 17.3 mph 32.2 mph N/A   Scattered Clouds
2:20 PM 59.0 °F - 44.6 °F 59% 29.56 in 6.2 mi SSE 15.0 mph - N/A   Scattered Clouds
2:50 PM 60.8 °F - 41.0 °F 48% 29.56 in 6.2 mi SSE 20.7 mph 34.5 mph N/A   Scattered Clouds
3:20 PM 60.8 °F - 42.8 °F 52% 29.56 in 6.2 mi SSE 19.6 mph 31.1 mph N/A   Scattered Clouds
3:50 PM 59.0 °F - 41.0 °F 51% 29.56 in 6.2 mi SSE 18.4 mph 31.1 mph N/A   Scattered Clouds
4:20 PM 59.0 °F - 42.8 °F 55% 29.56 in 6.2 mi South 18.4 mph 29.9 mph N/A   Scattered Clouds
4:50 PM 55.4 °F - 44.6 °F 67% 29.56 in 6.2 mi SSE 20.7 mph - N/A   Scattered Clouds
5:20 PM 55.4 °F - 42.8 °F 63% 29.56 in 6.2 mi SSE 19.6 mph - N/A   Scattered Clouds
5:50 PM 55.4 °F - 42.8 °F 63% 29.56 in 6.2 mi SSE 20.7 mph 32.2 mph N/A   Scattered Clouds
6:20 PM 53.6 °F - 42.8 °F 67% 29.56 in 6.2 mi SSE 15.0 mph - N/A   Partly Cloudy
6:50 PM 55.4 °F - 42.8 °F 63% 29.56 in 6.2 mi SSE 16.1 mph - N/A   Partly Cloudy